Weather History for Praha / Ruzyne, Czech Republic

Change the Weather History Date:

Friday, December 27, 2013

  Actual Average Record
Temperature  
Mean Temperature 39 °F -  
Max Temperature 45 °F 33 °F - ()
Min Temperature 33 °F 22 °F - ()
Degree Days  
Heating Degree Days 26    
Moisture  
Dew Point 35 °F    
Average Humidity 82    
Maximum Humidity 93    
Minimum Humidity 58    
Precipitation  
Precipitation 0.00 in 0.03 in - ()
Sea Level Pressure  
Sea Level Pressure 29.76 in    
Wind  
Wind Speed 10 mph ()    
Max Wind Speed 21 mph    
Max Gust Speed -    
Visibility 6.6 miles    
Events Rain    
T = Trace of Precipitation, MM = Missing Value Source: Averaged Metar Reports

Daily Weather History Graph

Daily Weather History Graph

Search for Another Location

Airport:

Trip Planner

Search our weather history database for the weather conditions in past years. The results will help you decide how hot, cold, wet, or windy it might be!

Date:

Astronomy

Dec. 27, 2013 Rise Set
Actual Time 8:01 AM CET 4:06 PM CET
Civil Twilight 7:23 AM CET 4:45 PM CET
Nautical Twilight 6:41 AM CET 5:26 PM CET
Astronomical Twilight 6:01 AM CET 6:06 PM CET
Moon 1:52 AM CET (12/27) 12:26 PM CET (12/27)
Length of Visible Light 9h 22m
Length of Day
8h 05m
Waning Crescent, 31% of the Moon is Illuminated
Dec 27
Waning Crescent
Jan 1
New
Jan 8
First Quarter
Jan 16
Full
Jan 24
Last Quarter

Hourly Weather History & Observations

Time (CET) Temp. Windchill Dew Point Humidity Pressure Visibility Wind Dir Wind Speed Gust Speed Precip Events Conditions
12:00 AM 40 °F - 38 °F 89% 29.62 in 4 mi SW 11.2 mph - - Rain Light Rain
12:00 AM 39.2 °F 32.0 °F 37.4 °F 93% 29.56 in 4.3 mi SW 11.5 mph - N/A Rain Light Rain
12:30 AM 39.2 °F 33.0 °F 37.4 °F 93% 29.59 in 4.3 mi SW 9.2 mph - N/A   Scattered Clouds
1:00 AM 40 °F - 38 °F 89% 29.65 in 5 mi WSW 11.2 mph - - Rain Light Rain
1:00 AM 39.2 °F 31.6 °F 37.4 °F 93% 29.59 in 5.0 mi SW 12.7 mph - N/A   Mostly Cloudy
1:30 AM 39.2 °F 32.0 °F 37.4 °F 93% 29.62 in 5.0 mi SW 11.5 mph - N/A   Overcast
2:00 AM 40 °F - 38 °F 88% 29.68 in 5 mi WSW 8.9 mph - -   Mist
2:00 AM 39.2 °F 32.0 °F 37.4 °F 93% 29.62 in 5.0 mi WSW 11.5 mph - N/A   Mostly Cloudy
2:30 AM 39.2 °F 32.0 °F 37.4 °F 93% 29.65 in 5.0 mi WSW 11.5 mph - N/A   Overcast
3:00 AM 40 °F - 38 °F 89% 29.72 in 5 mi WSW 11.2 mph - -   Mist
3:00 AM 39.2 °F 32.0 °F 37.4 °F 93% 29.68 in 5.0 mi SW 11.5 mph - N/A   Overcast
3:30 AM 39.2 °F 32.5 °F 37.4 °F 93% 29.68 in 5.0 mi WSW 10.4 mph - N/A   Overcast
4:00 AM 40 °F - 38 °F 90% 29.73 in 5 mi WSW 8.9 mph - -   Mist
4:00 AM 39.2 °F 33.0 °F 37.4 °F 93% 29.68 in 5.0 mi WSW 9.2 mph - N/A   Overcast
4:30 AM 41.0 °F 34.7 °F 37.4 °F 87% 29.68 in 5.6 mi SW 10.4 mph - N/A   Mostly Cloudy
5:00 AM 40 °F - 38 °F 88% 29.76 in 6 mi WSW 11.2 mph - -   Mist
5:00 AM 39.2 °F 32.5 °F 37.4 °F 93% 29.71 in 5.6 mi SW 10.4 mph - N/A   Mostly Cloudy
5:30 AM 41.0 °F 34.3 °F 37.4 °F 87% 29.71 in 6.2 mi WSW 11.5 mph - N/A   Overcast
6:00 AM 40 °F - 38 °F 88% 29.78 in 12 mi WSW 8.9 mph - -   Overcast
6:00 AM 41.0 °F 34.7 °F 37.4 °F 87% 29.74 in 6.2 mi WSW 10.4 mph - N/A   Overcast
6:30 AM 41.0 °F 35.2 °F 37.4 °F 87% 29.74 in 6.2 mi SW 9.2 mph - N/A   Overcast
7:00 AM 40 °F - 37 °F 87% 29.81 in 12 mi WSW 8.9 mph - -   Overcast
7:00 AM 41.0 °F 33.9 °F 37.4 °F 87% 29.77 in 6.2 mi WSW 12.7 mph - N/A   Overcast
7:30 AM 41.0 °F 34.7 °F 37.4 °F 87% 29.77 in 6.2 mi WSW 10.4 mph - N/A   Overcast
8:00 AM 40 °F - 37 °F 87% 29.83 in 19 mi SW 8.9 mph - -   Overcast
8:00 AM 41.0 °F 34.7 °F 37.4 °F 87% 29.77 in 6.2 mi SW 10.4 mph - N/A   Overcast
8:30 AM 41.0 °F 36.4 °F 37.4 °F 87% 29.80 in 6.2 mi SW 6.9 mph - N/A   Mostly Cloudy
9:00 AM 40 °F - 37 °F 83% 29.85 in 19 mi SW 11.2 mph - -   Mostly Cloudy
9:00 AM 39.2 °F 32.0 °F 37.4 °F 93% 29.80 in 6.2 mi SW 11.5 mph - N/A   Scattered Clouds
9:30 AM 41.0 °F 34.3 °F 37.4 °F 87% 29.80 in 6.2 mi SW 11.5 mph - N/A   Scattered Clouds
10:00 AM 42 °F - 37 °F 75% 29.86 in 25 mi SW 13.4 mph - -   Scattered Clouds
10:00 AM 41.0 °F 33.5 °F 37.4 °F 87% 29.80 in 6.2 mi SW 13.8 mph - N/A   Partly Cloudy
10:30 AM 42.8 °F 36.2 °F 35.6 °F 76% 29.80 in 6.2 mi SW 12.7 mph - N/A   Partly Cloudy
11:00 AM 43 °F - 36 °F 67% 29.85 in 31 mi SW 17.9 mph - -   Partly Cloudy
11:00 AM 42.8 °F 34.8 °F 35.6 °F 76% 29.80 in 6.2 mi SW 17.3 mph - N/A   Scattered Clouds
11:30 AM 42.8 °F 34.0 °F 35.6 °F 76% 29.80 in 6.2 mi SSW 20.7 mph - N/A   Mostly Cloudy
12:00 PM 43 °F - 35 °F 64% 29.84 in 37 mi SSW 15.7 mph - -   Mostly Cloudy
12:00 PM 42.8 °F 35.1 °F 35.6 °F 76% 29.80 in 6.2 mi SSW 16.1 mph - N/A   Scattered Clouds
12:30 PM 42.8 °F 35.8 °F 35.6 °F 76% 29.77 in 6.2 mi SSW 13.8 mph - N/A   Scattered Clouds
1:00 PM 44 °F - 34 °F 58% 29.80 in 44 mi SSW 13.4 mph - -   Scattered Clouds
1:00 PM 42.8 °F 37.5 °F 33.8 °F 70% 29.77 in 6.2 mi South 9.2 mph - N/A   Partly Cloudy
1:30 PM 44.6 °F 39.2 °F 35.6 °F 71% 29.74 in 6.2 mi South 10.4 mph - N/A   Partly Cloudy
2:00 PM 45 °F - 35 °F 59% 29.79 in 44 mi South 11.2 mph - -   Scattered Clouds
2:00 PM 44.6 °F 39.2 °F 35.6 °F 71% 29.77 in 6.2 mi South 10.4 mph - N/A   Partly Cloudy
2:30 PM 44.6 °F 39.7 °F 35.6 °F 71% 29.77 in 6.2 mi South 9.2 mph - N/A   Partly Cloudy
3:00 PM 44 °F - 35 °F 61% 29.82 in 44 mi South 8.9 mph - -   Scattered Clouds
3:00 PM 44.6 °F 40.7 °F 35.6 °F 71% 29.77 in 6.2 mi South 6.9 mph - N/A   Partly Cloudy
3:30 PM 42.8 °F 39.3 °F 33.8 °F 70% 29.80 in - South 5.8 mph - N/A   Clear
4:00 PM 42 °F - 34 °F 65% 29.83 in 44 mi South 6.7 mph - -   Clear
4:00 PM 42.8 °F 40.1 °F 33.8 °F 70% 29.80 in - South 4.6 mph - N/A   Clear
4:30 PM 41.0 °F 37.1 °F 33.8 °F 76% 29.77 in - SSE 5.8 mph - N/A   Clear
5:00 PM 38 °F - 32 °F 70% 29.85 in 44 mi SSE 6.7 mph - -   Clear
5:00 PM 39.2 °F 34.2 °F 32.0 °F 75% 29.80 in - SSE 6.9 mph - N/A   Clear
5:30 PM 37.4 °F 32.8 °F 32.0 °F 81% 29.80 in - SSE 5.8 mph - N/A   Clear
6:00 PM 38 °F - 33 °F 74% 29.85 in 44 mi South 6.7 mph - -   Clear
6:00 PM 39.2 °F 35.0 °F 32.0 °F 75% 29.80 in - SSE 5.8 mph - N/A   Clear
6:30 PM 39.2 °F 34.2 °F 33.8 °F 81% 29.77 in - SSE 6.9 mph - N/A   Clear
7:00 PM 38 °F - 33 °F 77% 29.83 in 44 mi SSE 6.7 mph - -   Clear
7:00 PM 39.2 °F 32.5 °F 33.8 °F 81% 29.77 in - SSE 10.4 mph - N/A   Clear
7:30 PM 37.4 °F 31.4 °F 33.8 °F 87% 29.77 in - SSE 8.1 mph - N/A   Clear
8:00 PM 37 °F - 33 °F 81% 29.83 in 37 mi SSE 6.7 mph - -   Clear
8:00 PM 37.4 °F 30.3 °F 33.8 °F 87% 29.77 in - SSE 10.4 mph - N/A   Clear
8:30 PM 37.4 °F 32.1 °F 32.0 °F 81% 29.77 in - SSE 6.9 mph - N/A   Clear
9:00 PM 38 °F - 33 °F 77% 29.83 in 31 mi South 6.7 mph - -  
9:00 PM 37.4 °F 29.3 °F 33.8 °F 87% 29.77 in - SSE 12.7 mph - N/A   Clear
9:30 PM 37.4 °F 30.3 °F 33.8 °F 87% 29.80 in - South 10.4 mph - N/A   Clear
10:00 PM 35 °F - 32 °F 83% 29.85 in 31 mi SSE 6.7 mph - -  
10:00 PM 35.6 °F 29.9 °F 32.0 °F 87% 29.80 in - SSE 6.9 mph - N/A   Clear
10:30 PM 33.8 °F 27.0 °F 32.0 °F 93% 29.80 in - SSE 8.1 mph - N/A   Clear
11:00 PM 34 °F - 32 °F 89% 29.86 in 25 mi SSW 4.5 mph - -  
11:00 PM 33.8 °F 28.6 °F 32.0 °F 93% 29.80 in - South 5.8 mph - N/A   Clear
11:30 PM 35.6 °F 29.9 °F 32.0 °F 87% 29.77 in - SSE 6.9 mph - N/A   Clear